EW4538 Weather Reports


time (UTC)temp
F
wind
direction
speed
knots
gust
knots
rain 1hr
in
rain 24hr
in
rain mn
in
humidity
%
barometer
mb
20260505091304 70 169 4.3 13.0 0.00 0.00 0.00 80 1007.4
20260505090804 70 173 6.1 13.0 0.00 0.00 0.00 80 1007.2
20260505090304 70 165 6.1 12.2 0.00 0.00 0.00 80 1007.3
20260505084804 70 172 4.3 10.4 0.00 0.00 0.00 80 1007.7
20260505084303 70 181 6.1 10.4 0.00 0.00 0.00 80 1007.6
20260505083804 70 166 7.0 17.4 0.00 0.00 0.00 80 1007.5
20260505081804 70 184 6.1 12.2 0.00 0.00 0.00 79 1007.6
20260505081304 70 175 7.8 17.4 0.00 0.00 0.00 79 1007.7
20260505080804 70 179 7.8 14.8 0.00 0.00 0.00 79 1007.7
20260505080304 70 174 9.6 15.6 0.00 0.00 0.00 79 1007.7
20260505074305 70 178 8.7 18.2 0.00 0.00 0.00 79 1008.0
20260505073305 70 179 5.2 18.2 0.00 0.00 0.00 79 1008.3
20260505071306 70 170 6.1 11.3 0.00 0.00 0.00 79 1008.5
20260505070805 70 168 8.7 15.6 0.00 0.00 0.00 79 1008.6
20260505070305 70 180 6.1 13.9 0.00 0.00 0.00 79 1008.7
20260505064805 70 167 9.6 13.9 0.00 0.00 0.00 79 1008.6
20260505064306 70 166 6.1 13.9 0.00 0.00 0.00 79 1008.8
20260505063305 70 172 9.6 21.7 0.00 0.00 0.00 78 1008.8
20260505061805 70 169 8.7 17.4 0.00 0.00 0.00 78 1009.0
20260505061305 70 173 9.6 15.6 0.00 0.00 0.00 78 1009.1
20260505060805 70 177 7.8 18.2 0.00 0.00 0.00 78 1009.0
20260505060305 70 168 8.7 17.4 0.00 0.00 0.00 78 1009.1
20260505054805 71 176 8.7 12.2 0.00 0.00 0.00 78 1009.2
20260505054305 71 174 8.7 13.9 0.00 0.00 0.00 78 1009.2
20260505053805 71 172 7.8 11.3 0.00 0.00 0.00 78 1009.1
20260505053305 71 183 7.8 20.0 0.00 0.00 0.00 78 1009.1
20260505051805 71 163 8.7 13.0 0.00 0.00 0.00 78 1009.1
20260505050805 71 163 10.4 15.6 0.00 0.00 0.00 78 1009.0
20260505050305 71 171 7.8 15.6 0.00 0.00 0.00 78 1009.2
20260505041305 72 166 13.9 18.2 0.00 0.00 0.00 76 1009.1
20260505040305 72 149 10.4 17.4 0.00 0.00 0.00 75 1009.1
20260505034805 72 157 9.6 13.0 0.00 0.00 0.00 74 1009.2
20260505034305 72 161 7.0 13.9 0.00 0.00 0.00 74 1009.2
20260505033805 72 163 6.1 14.8 0.00 0.00 0.00 73 1009.2
20260505031805 73 162 7.8 10.4 0.00 0.00 0.00 73 1008.8
20260505031306 73 162 7.8 13.9 0.00 0.00 0.00 72 1008.9
20260505030805 73 161 6.1 13.0 0.00 0.00 0.00 72 1008.9
20260505030305 73 168 8.7 15.6 0.00 0.00 0.00 72 1008.8
20260505024305 74 167 6.1 13.9 0.00 0.00 0.00 70 1008.9
20260505023305 74 166 7.8 13.9 0.00 0.00 0.00 70 1008.9
20260505021305 74 161 6.1 10.4 0.00 0.00 0.00 68 1008.7
20260505020805 74 160 5.2 8.7 0.00 0.00 0.00 67 1008.7
20260505020305 75 162 5.2 13.9 0.00 0.00 0.00 67 1008.7
20260505013805 76 164 6.1 11.3 0.00 0.00 0.00 64 1008.6
20260505013305 76 169 8.7 14.8 0.00 0.00 0.00 64 1008.6
20260505011805 76 175 5.2 10.4 0.00 0.00 0.00 62 1008.6
20260505010805 77 171 5.2 13.9 0.00 0.00 0.00 61 1008.5
20260505010305 77 169 7.0 15.6 0.00 0.00 0.00 61 1008.5
20260505004805 77 170 7.8 13.0 0.00 0.00 0.00 60 1008.5
20260505004305 78 168 7.8 14.8 0.00 0.00 0.00 59 1008.6
20260505003805 78 176 8.7 18.2 0.00 0.00 0.00 59 1008.5
20260505003305 78 170 10.4 24.3 0.00 0.00 0.00 59 1008.5
20260505001805 78 182 7.8 18.2 0.00 0.00 0.00 58 1008.4
20260505001305 78 164 8.7 15.6 0.00 0.00 0.00 58 1008.4
20260505000305 78 180 7.8 20.9 0.00 0.00 0.00 58 1008.2
20260504234805 79 174 11.3 17.4 0.00 0.00 0.00 56 1008.4
20260504234305 79 171 10.4 17.4 0.00 0.00 0.00 56 1008.5
20260504233805 80 169 10.4 17.4 0.00 0.00 0.00 56 1008.5
20260504233305 80 176 8.7 20.0 0.00 0.00 0.00 56 1008.6
20260504231305 80 173 13.0 21.7 0.00 0.00 0.00 56 1008.7
20260504230305 80 162 10.4 20.0 0.00 0.00 0.00 55 1008.8
20260504224805 80 177 9.6 18.2 0.00 0.00 0.00 55 1009.0
20260504223805 81 175 10.4 20.0 0.00 0.00 0.00 54 1009.0
20260504223305 81 198 9.6 20.0 0.00 0.00 0.00 54 1009.1
20260504221805 81 177 12.2 20.0 0.00 0.00 0.00 53 1009.2
20260504221305 81 174 13.9 20.9 0.00 0.00 0.00 53 1009.2
20260504220805 81 168 8.7 13.9 0.00 0.00 0.00 52 1009.3
20260504214806 82 181 9.6 21.7 0.00 0.00 0.00 52 1009.4
20260504214305 82 171 10.4 18.2 0.00 0.00 0.00 53 1009.3
20260504213805 82 168 14.8 22.6 0.00 0.00 0.00 51 1009.3
20260504213305 82 155 13.0 24.3 0.00 0.00 0.00 52 1009.4
20260504211805 82 174 7.8 15.6 0.00 0.00 0.00 52 1009.7
20260504211305 82 169 12.2 22.6 0.00 0.00 0.00 51 1009.7
20260504210805 82 172 14.8 24.3 0.00 0.00 0.00 52 1009.9
20260504210305 81 164 14.8 22.6 0.00 0.00 0.00 52 1009.9
20260504204305 81 174 8.7 17.4 0.00 0.00 0.00 53 1010.5
20260504203805 81 167 10.4 14.8 0.00 0.00 0.00 52 1010.5
20260504201805 81 176 10.4 21.7 0.00 0.00 0.00 53 1010.9
20260504201305 81 175 7.8 15.6 0.00 0.00 0.00 53 1011.0
20260504200805 81 173 9.6 18.2 0.00 0.00 0.00 52 1011.2
20260504200305 81 170 10.4 20.0 0.00 0.00 0.00 54 1011.2
20260504194805 80 162 10.4 20.9 0.00 0.00 0.00 53 1011.5
20260504194305 81 175 8.7 17.4 0.00 0.00 0.00 53 1011.5
20260504193805 80 176 6.1 13.0 0.00 0.00 0.00 53 1011.6
20260504193305 80 174 10.4 20.0 0.00 0.00 0.00 54 1011.7
20260504191805 80 173 10.4 17.4 0.00 0.00 0.00 54 1011.9
20260504191305 79 173 8.7 18.2 0.00 0.00 0.00 55 1011.8
20260504190805 79 164 10.4 21.7 0.00 0.00 0.00 56 1012.1
20260504190305 79 160 12.2 21.7 0.00 0.00 0.00 56 1012.2
20260504184306 79 173 9.6 14.8 0.00 0.00 0.00 56 1012.5
20260504183305 79 173 11.3 17.4 0.00 0.00 0.00 55 1012.6
20260504181805 78 180 7.8 13.0 0.00 0.00 0.00 59 1013.0
20260504181305 77 154 10.4 17.4 0.00 0.00 0.00 58 1013.1
20260504180805 77 166 10.4 21.7 0.00 0.00 0.00 58 1013.1
20260504180305 76 178 10.4 18.2 0.00 0.00 0.00 59 1013.1
20260504174805 75 161 7.8 14.8 0.00 0.00 0.00 61 1013.1
20260504174305 76 165 11.3 15.6 0.00 0.00 0.00 61 1013.3
20260504173805 76 174 10.4 17.4 0.00 0.00 0.00 61 1013.3
20260504171805 73 178 8.7 17.4 0.00 0.00 0.00 64 1014.1
20260504171305 73 170 9.6 14.8 0.00 0.00 0.00 64 1014.1
20260504170805 73 182 7.8 15.6 0.00 0.00 0.00 65 1014.2
20260504170305 73 189 7.8 18.2 0.00 0.00 0.00 66 1014.3
20260504150304 70 178 11.3 17.4 0.00 0.00 0.00 67 1014.9
20260504141304 68 162 4.3 14.8 0.00 0.00 0.00 70 1014.8
20260504140805 59 0 0.0 0.0 0.00 0.00 0.00 79 1014.8
20260504140305 59 0 0.0 0.0 0.00 0.00 0.00 79 1014.9
20260504130305 59 0 0.0 0.0 0.00 0.00 0.00 79 1015.1
20260504120305 59 0 0.0 0.0 0.00 0.00 0.00 79 1014.6
20260504110305 59 160 5.2 8.7 0.00 0.00 0.00 78 1014.6